TimeHST,TemperatureF,Dew PointF,Humidity,Sea Level PressureIn,VisibilityMPH,Wind Direction,Wind SpeedMPH,Gust SpeedMPH,PrecipitationIn,Events,Conditions,WindDirDegrees,DateUTC
12:56 AM,-9999,-9999,N/A,30.01,10.0,NE,5.8,-,N/A,,Clear,50,2014-01-30 10:56:00
1:56 AM,-9999,-9999,N/A,30.00,10.0,Calm,Calm,-,N/A,,Clear,0,2014-01-30 11:56:00
2:56 AM,-9999,-9999,N/A,29.97,10.0,East,4.6,-,N/A,,Scattered Clouds,100,2014-01-30 12:56:00
3:56 AM,-9999,-9999,N/A,29.96,10.0,ENE,4.6,-,N/A,,Mostly Cloudy,60,2014-01-30 13:56:00
4:56 AM,-9999,-9999,N/A,29.96,10.0,East,3.5,-,N/A,,Overcast,90,2014-01-30 14:56:00
5:56 AM,-9999,-9999,N/A,29.96,10.0,ESE,3.5,-,N/A,,Mostly Cloudy,110,2014-01-30 15:56:00
6:56 AM,66.9,64.0,90,29.95,10.0,Calm,Calm,-,N/A,,Clear,0,2014-01-30 16:56:00
7:56 AM,66.9,63.0,87,29.96,10.0,ESE,3.5,-,N/A,,Clear,120,2014-01-30 17:56:00
8:56 AM,73.0,64.9,76,29.97,10.0,Calm,Calm,-,N/A,,Clear,0,2014-01-30 18:56:00
9:56 AM,75.9,66.0,71,29.97,10.0,NW,4.6,-,N/A,,Clear,310,2014-01-30 19:56:00
10:56 AM,77.0,66.9,71,29.96,10.0,North,5.8,-,N/A,,Clear,10,2014-01-30 20:56:00
11:56 AM,78.1,66.0,66,29.92,10.0,NNW,10.4,-,N/A,,Clear,330,2014-01-30 21:56:00
12:51 PM,75.2,66.2,73,29.90,10.0,NW,6.9,-,N/A,,Overcast,310,2014-01-30 22:51:00
12:56 PM,75.0,66.9,76,29.91,10.0,NW,5.8,-,N/A,,Overcast,310,2014-01-30 22:56:00
1:56 PM,75.0,68.0,79,29.88,10.0,WSW,5.8,-,N/A,,Overcast,240,2014-01-30 23:56:00
2:17 PM,75.2,68.0,78,29.86,10.0,SSE,4.6,-,N/A,,Overcast,150,2014-01-31 00:17:00
2:56 PM,75.0,69.1,82,29.87,10.0,Calm,Calm,-,N/A,,Overcast,0,2014-01-31 00:56:00
3:25 PM,75.2,68.0,78,29.85,10.0,Calm,Calm,-,N/A,,Overcast,0,2014-01-31 01:25:00
3:41 PM,75.2,64.4,69,29.85,10.0,SSE,5.8,-,N/A,,Unknown,160,2014-01-31 01:41:00
3:56 PM,77.0,64.9,66,29.86,10.0,SSE,4.6,-,N/A,,Unknown,150,2014-01-31 01:56:00
4:56 PM,75.9,63.0,64,29.86,10.0,SSE,5.8,-,N/A,,Unknown,150,2014-01-31 02:56:00
5:56 PM,75.0,66.9,76,29.86,10.0,Calm,Calm,-,N/A,,Partly Cloudy,0,2014-01-31 03:56:00
6:56 PM,72.0,66.0,81,29.88,10.0,SSE,3.5,-,N/A,,Clear,160,2014-01-31 04:56:00
7:56 PM,-9999,-9999,N/A,29.90,10.0,SE,5.8,-,N/A,,Clear,140,2014-01-31 05:56:00
8:56 PM,-9999,-9999,N/A,29.91,10.0,SE,5.8,-,N/A,,Clear,140,2014-01-31 06:56:00
9:56 PM,66.9,63.0,87,29.91,10.0,SE,3.5,-,N/A,,Clear,130,2014-01-31 07:56:00
10:56 PM,68.0,61.0,78,29.90,10.0,Calm,Calm,-,N/A,,Clear,0,2014-01-31 08:56:00
11:56 PM,66.9,61.0,81,29.90,10.0,Calm,Calm,-,N/A,,Mostly Cloudy,0,2014-01-31 09:56:00